Time,TemperatureF,DewpointF,PressureIn,WindDirection,WindDirectionDegrees,WindSpeedMPH,WindSpeedGustMPH,Humidity,HourlyPrecipIn,Conditions,Clouds,dailyrainin,SoftwareType,DateUTC
2013-05-08 00:00:00,57.0,55.0,30.08,ENE,65,0.0,4.0,93,0.01,,CLR,0.00,VWS V14.00,2013-05-08 04:00:00,
2013-05-08 00:01:00,57.0,55.0,30.08,ENE,65,0.0,4.0,93,0.01,,BKN065,0.00,VWS V14.00,2013-05-08 04:01:00,
2013-05-08 00:02:00,57.0,55.0,30.09,ENE,66,1.0,2.0,93,0.01,,BKN065,0.00,VWS V14.00,2013-05-08 04:02:00,
2013-05-08 00:03:00,57.0,55.0,30.08,ENE,66,1.0,2.0,93,0.01,,BKN065,0.00,VWS V14.00,2013-05-08 04:03:00,
2013-05-08 00:05:00,57.0,55.0,30.08,ENE,67,0.0,2.0,93,0.01,,BKN065,0.00,VWS V14.00,2013-05-08 04:05:00,
2013-05-08 00:10:00,57.0,55.0,30.08,NNE,23,1.0,2.0,93,0.01,,BKN065,0.00,VWS V14.00,2013-05-08 04:10:00,
2013-05-08 00:15:00,57.0,55.0,30.08,ENE,63,0.0,2.0,93,0.01,,BKN065,0.00,VWS V14.00,2013-05-08 04:15:00,
2013-05-08 00:20:00,57.0,55.0,30.08,North,11,0.0,2.0,93,0.01,,BKN065,0.00,VWS V14.00,2013-05-08 04:20:00,
2013-05-08 00:25:00,57.0,55.0,30.08,NNE,23,2.0,3.0,93,0.01,,BKN065,0.00,VWS V14.00,2013-05-08 04:25:00,
2013-05-08 00:30:00,57.0,55.0,30.08,East,79,1.0,2.0,93,0.00,,BKN065,0.00,VWS V14.00,2013-05-08 04:30:00,
2013-05-08 00:35:00,57.0,55.0,30.08,ENE,76,1.0,2.0,93,0.00,,BKN065,0.00,VWS V14.00,2013-05-08 04:35:00,
2013-05-08 00:40:00,57.0,55.0,30.08,ENE,71,0.0,2.0,93,0.00,,BKN065,0.00,VWS V14.00,2013-05-08 04:40:00,
2013-05-08 00:45:00,57.1,55.1,30.09,ESE,110,0.0,2.0,93,0.00,,BKN065,0.00,VWS V14.00,2013-05-08 04:45:00,
2013-05-08 00:50:00,57.1,55.1,30.08,NNE,20,2.0,3.0,93,0.05,,BKN065,0.05,VWS V14.00,2013-05-08 04:50:00,
2013-05-08 00:55:00,57.0,55.0,30.08,NE,55,1.0,4.0,93,0.11,,BKN065,0.11,VWS V14.00,2013-05-08 04:55:00,
2013-05-08 01:00:00,57.0,55.0,30.07,North,354,2.0,2.0,93,0.12,,BKN065,0.12,VWS V14.00,2013-05-08 05:00:00,
2013-05-08 01:05:00,56.9,55.2,30.07,NNE,22,0.0,2.0,94,0.12,,-RA,0.12,VWS V14.00,2013-05-08 05:05:00,
2013-05-08 01:10:00,56.9,55.2,30.07,NE,40,0.0,2.0,94,0.12,,-RA,0.12,VWS V14.00,2013-05-08 05:10:00,
2013-05-08 01:15:00,56.8,55.1,30.07,North,11,0.0,3.0,94,0.12,,-RA,0.12,VWS V14.00,2013-05-08 05:15:00,
2013-05-08 01:20:00,56.9,55.2,30.07,East,82,0.0,3.0,94,0.12,,-RA,0.12,VWS V14.00,2013-05-08 05:20:00,
2013-05-08 01:25:00,56.9,55.2,30.06,ENE,59,1.0,3.0,94,0.12,,-RA,0.12,VWS V14.00,2013-05-08 05:25:00,
2013-05-08 01:30:00,57.0,55.3,30.06,North,9,0.0,0.0,94,0.12,,OVC110,0.12,VWS V14.00,2013-05-08 05:30:00,
2013-05-08 01:35:00,57.0,55.3,30.06,NE,34,0.0,2.0,94,0.13,,OVC110,0.13,VWS V14.00,2013-05-08 05:35:00,
2013-05-08 01:40:00,57.1,55.4,30.06,NNW,344,0.0,2.0,94,0.14,,OVC110,0.14,VWS V14.00,2013-05-08 05:40:00,
2013-05-08 01:45:00,57.2,55.5,30.05,NNE,22,0.0,2.0,94,0.14,,OVC110,0.14,VWS V14.00,2013-05-08 05:45:00,
2013-05-08 01:50:00,57.2,55.5,30.05,NNW,342,1.0,3.0,94,0.14,,OVC110,0.14,VWS V14.00,2013-05-08 05:50:00,
2013-05-08 01:55:00,57.3,55.6,30.05,NNE,14,1.0,3.0,94,0.14,,OVC110,0.14,VWS V14.00,2013-05-08 05:55:00,
2013-05-08 02:00:00,57.3,55.9,30.05,NNE,23,1.0,1.0,95,0.02,,OVC018,0.14,VWS V14.00,2013-05-08 06:00:00,
2013-05-08 02:05:00,57.4,56.0,30.05,East,85,1.0,3.0,95,0.02,,OVC018,0.14,VWS V14.00,2013-05-08 06:05:00,
2013-05-08 02:11:00,57.5,56.1,30.04,NNE,24,1.0,3.0,95,0.02,,OVC018,0.14,VWS V14.00,2013-05-08 06:11:00,
2013-05-08 02:16:00,57.5,56.1,30.04,NE,55,2.0,6.0,95,0.02,,OVC018,0.14,VWS V14.00,2013-05-08 06:16:00,
2013-05-08 02:21:00,57.6,56.2,30.04,ENE,70,0.0,6.0,95,0.02,,OVC018,0.14,VWS V14.00,2013-05-08 06:21:00,
2013-05-08 02:26:00,57.7,56.3,30.04,ENE,63,0.0,6.0,95,0.02,,OVC018,0.14,VWS V14.00,2013-05-08 06:26:00,
2013-05-08 02:30:00,57.7,56.3,30.04,NNE,23,1.0,6.0,95,0.02,,CLR,0.14,VWS V14.00,2013-05-08 06:30:00,
2013-05-08 02:31:00,57.7,56.3,30.04,NNE,30,1.0,1.0,95,0.02,,OVC018,0.14,VWS V14.00,2013-05-08 06:31:00,
2013-05-08 02:36:00,57.8,56.4,30.04,NE,40,0.0,5.0,95,0.02,,OVC018,0.14,VWS V14.00,2013-05-08 06:36:00,
2013-05-08 02:41:00,57.9,56.5,30.04,NE,38,0.0,5.0,95,0.02,,OVC018,0.14,VWS V14.00,2013-05-08 06:41:00,
2013-05-08 02:46:00,58.0,56.6,30.04,NNE,13,0.0,5.0,95,0.02,,OVC018,0.14,VWS V14.00,2013-05-08 06:46:00,
2013-05-08 02:51:00,58.0,56.6,30.03,North,6,1.0,5.0,95,0.02,,OVC003,0.14,VWS V14.00,2013-05-08 06:51:00,
2013-05-08 02:56:00,58.0,56.6,30.03,North,9,0.0,5.0,95,0.02,,OVC003,0.14,VWS V14.00,2013-05-08 06:56:00,
2013-05-08 03:00:00,58.0,56.6,30.03,North,11,2.0,5.0,95,0.02,,CLR,0.14,VWS V14.00,2013-05-08 07:00:00,
2013-05-08 03:01:00,58.1,56.7,30.03,North,11,0.0,2.0,95,0.00,,OVC003,0.14,VWS V14.00,2013-05-08 07:01:00,
2013-05-08 03:06:00,58.1,56.7,30.03,North,11,0.0,2.0,95,0.00,,OVC003,0.14,VWS V14.00,2013-05-08 07:06:00,
2013-05-08 03:11:00,58.1,56.7,30.03,North,6,0.0,2.0,95,0.00,,OVC003,0.14,VWS V14.00,2013-05-08 07:11:00,
2013-05-08 03:16:00,58.2,56.8,30.03,NNW,345,0.0,3.0,95,0.00,,OVC003,0.14,VWS V14.00,2013-05-08 07:16:00,
2013-05-08 03:21:00,58.2,56.8,30.03,NNE,32,0.0,3.0,95,0.00,,OVC003,0.14,VWS V14.00,2013-05-08 07:21:00,
2013-05-08 03:26:00,58.3,56.9,30.03,NNE,32,0.0,3.0,95,0.00,,OVC003,0.14,VWS V14.00,2013-05-08 07:26:00,
2013-05-08 03:30:00,58.3,56.9,30.03,North,359,0.0,3.0,95,0.00,,CLR,0.14,VWS V14.00,2013-05-08 07:30:00,
2013-05-08 03:31:00,58.3,56.9,30.03,NNE,16,0.0,1.0,95,0.00,,OVC003,0.14,VWS V14.00,2013-05-08 07:31:00,
2013-05-08 03:36:00,58.3,56.9,30.03,ENE,71,0.0,3.0,95,0.00,,OVC003,0.14,VWS V14.00,2013-05-08 07:36:00,
2013-05-08 03:41:00,58.4,57.0,30.03,NNE,32,0.0,4.0,95,0.00,,OVC003,0.14,VWS V14.00,2013-05-08 07:41:00,
2013-05-08 03:46:00,58.5,57.1,30.02,NE,39,1.0,4.0,95,0.00,,OVC003,0.14,VWS V14.00,2013-05-08 07:46:00,
2013-05-08 03:51:00,58.5,57.1,30.03,North,359,3.0,4.0,95,0.00,,OVC003,0.14,VWS V14.00,2013-05-08 07:51:00,
2013-05-08 03:57:00,58.6,57.2,30.02,NNW,340,0.0,4.0,95,0.00,,OVC003,0.14,VWS V14.00,2013-05-08 07:57:00,
2013-05-08 04:00:00,58.7,57.3,30.03,NE,53,0.0,4.0,95,0.00,,CLR,0.14,VWS V14.00,2013-05-08 08:00:00,
2013-05-08 04:02:00,58.7,57.3,30.03,ENE,75,2.0,3.0,95,0.00,,OVC003,0.14,VWS V14.00,2013-05-08 08:02:00,
2013-05-08 04:07:00,58.8,57.4,30.02,NE,35,1.0,4.0,95,0.00,,OVC003,0.14,VWS V14.00,2013-05-08 08:07:00,
2013-05-08 04:12:00,58.8,57.4,30.02,NE,37,1.0,4.0,95,0.00,,OVC003,0.14,VWS V14.00,2013-05-08 08:12:00,
2013-05-08 04:17:00,58.8,57.4,30.02,North,354,1.0,5.0,95,0.00,,OVC003,0.14,VWS V14.00,2013-05-08 08:17:00,
2013-05-08 04:22:00,58.8,57.4,30.01,NNE,28,3.0,5.0,95,0.00,,OVC003,0.14,VWS V14.00,2013-05-08 08:22:00,
2013-05-08 04:27:00,58.8,57.4,30.01,NE,50,3.0,7.0,95,0.00,,OVC003,0.14,VWS V14.00,2013-05-08 08:27:00,
2013-05-08 04:30:00,58.8,57.4,30.01,NNE,26,3.0,7.0,95,0.00,,CLR,0.14,VWS V14.00,2013-05-08 08:30:00,
2013-05-08 04:32:00,58.7,57.3,30.01,NNE,20,1.0,3.0,95,0.00,,OVC003,0.14,VWS V14.00,2013-05-08 08:32:00,
2013-05-08 04:37:00,58.7,57.3,30.00,ENE,77,3.0,4.0,95,0.00,,OVC003,0.14,VWS V14.00,2013-05-08 08:37:00,
2013-05-08 04:42:00,58.7,57.3,30.00,ENE,66,1.0,4.0,95,0.00,,OVC003,0.14,VWS V14.00,2013-05-08 08:42:00,
2013-05-08 04:47:00,58.7,57.3,30.00,NNE,22,1.0,6.0,95,0.00,,OVC003,0.14,VWS V14.00,2013-05-08 08:47:00,
2013-05-08 04:52:00,58.8,57.4,30.01,NE,42,0.0,6.0,95,0.00,,OVC003,0.14,VWS V14.00,2013-05-08 08:52:00,
2013-05-08 04:57:00,58.8,57.4,30.01,ENE,73,1.0,6.0,95,0.00,,OVC003,0.14,VWS V14.00,2013-05-08 08:57:00,
2013-05-08 05:00:00,58.8,57.4,30.01,NE,47,1.0,6.0,95,0.00,,CLR,0.14,VWS V14.00,2013-05-08 09:00:00,
2013-05-08 05:02:00,58.8,57.4,30.01,ENE,61,3.0,5.0,95,0.00,,,0.14,VWS V14.00,2013-05-08 09:02:00,
2013-05-08 05:07:00,58.8,57.4,30.01,ENE,63,1.0,5.0,95,0.00,,,0.14,VWS V14.00,2013-05-08 09:07:00,
2013-05-08 05:12:00,58.8,57.4,30.01,ENE,63,0.0,5.0,95,0.00,,,0.14,VWS V14.00,2013-05-08 09:12:00,
2013-05-08 05:17:00,58.7,57.3,30.01,NNE,19,1.0,5.0,95,0.00,,,0.14,VWS V14.00,2013-05-08 09:17:00,
2013-05-08 05:22:00,58.7,57.3,30.01,NE,46,0.0,5.0,95,0.00,,,0.14,VWS V14.00,2013-05-08 09:22:00,
2013-05-08 05:27:00,58.7,57.3,30.01,ESE,102,1.0,5.0,95,0.00,,,0.14,VWS V14.00,2013-05-08 09:27:00,
2013-05-08 05:30:00,58.7,57.3,30.01,NE,42,2.0,5.0,95,0.00,,CLR,0.14,VWS V14.00,2013-05-08 09:30:00,
2013-05-08 05:32:00,58.6,57.2,30.01,NE,41,1.0,4.0,95,0.00,,,0.14,VWS V14.00,2013-05-08 09:32:00,
2013-05-08 05:37:00,58.6,57.2,30.02,ENE,61,2.0,4.0,95,0.00,,,0.14,VWS V14.00,2013-05-08 09:37:00,
2013-05-08 05:42:00,58.6,57.2,30.02,NNE,33,2.0,4.0,95,0.00,,,0.14,VWS V14.00,2013-05-08 09:42:00,
2013-05-08 05:47:00,58.6,57.2,30.02,NE,46,2.0,4.0,95,0.00,,,0.14,VWS V14.00,2013-05-08 09:47:00,
2013-05-08 05:52:00,58.6,57.2,30.02,NE,53,1.0,6.0,95,0.00,,,0.14,VWS V14.00,2013-05-08 09:52:00,
2013-05-08 05:57:00,58.6,57.2,30.02,North,360,2.0,6.0,95,0.00,,,0.14,VWS V14.00,2013-05-08 09:57:00,
2013-05-08 06:00:00,58.6,57.2,30.02,NE,49,0.0,6.0,95,0.00,,CLR,0.14,VWS V14.00,2013-05-08 10:00:00,
2013-05-08 06:03:00,58.6,57.2,30.02,NNE,24,0.0,2.0,95,0.00,,OVC009,0.14,VWS V14.00,2013-05-08 10:03:00,
2013-05-08 06:08:00,58.6,57.2,30.02,NW,321,0.0,2.0,95,0.00,,OVC009,0.14,VWS V14.00,2013-05-08 10:08:00,
2013-05-08 06:13:00,58.6,57.2,30.02,ENE,61,3.0,4.0,95,0.00,,OVC009,0.14,VWS V14.00,2013-05-08 10:13:00,
2013-05-08 06:18:00,58.6,57.2,30.02,NNE,13,1.0,7.0,95,0.00,,OVC009,0.14,VWS V14.00,2013-05-08 10:18:00,
2013-05-08 06:23:00,58.6,57.5,30.02,ESE,114,0.0,7.0,96,0.00,,OVC009,0.14,VWS V14.00,2013-05-08 10:23:00,
2013-05-08 06:28:00,58.7,57.6,30.02,ENE,75,0.0,7.0,96,0.00,,OVC009,0.14,VWS V14.00,2013-05-08 10:28:00,
2013-05-08 06:30:00,58.7,57.6,30.02,NE,46,1.0,7.0,96,0.00,,CLR,0.14,VWS V14.00,2013-05-08 10:30:00,
2013-05-08 06:33:00,58.7,57.6,30.02,NNE,13,1.0,3.0,96,0.01,,OVC009,0.15,VWS V14.00,2013-05-08 10:33:00,
2013-05-08 06:38:00,58.8,57.7,30.02,NNE,15,2.0,3.0,96,0.01,,OVC009,0.15,VWS V14.00,2013-05-08 10:38:00,
2013-05-08 06:43:00,58.8,57.7,30.02,NE,37,1.0,4.0,96,0.01,,OVC009,0.15,VWS V14.00,2013-05-08 10:43:00,
2013-05-08 06:48:00,58.9,57.8,30.02,North,359,1.0,4.0,96,0.02,,OVC009,0.16,VWS V14.00,2013-05-08 10:48:00,
2013-05-08 06:53:00,59.0,57.9,30.02,NNW,334,0.0,4.0,96,0.03,,OVC009,0.17,VWS V14.00,2013-05-08 10:53:00,
2013-05-08 06:58:00,59.0,57.9,30.02,ENE,70,1.0,4.0,96,0.06,,OVC009,0.20,VWS V14.00,2013-05-08 10:58:00,
2013-05-08 07:00:00,59.1,58.0,30.02,North,6,2.0,4.0,96,0.06,,CLR,0.20,VWS V14.00,2013-05-08 11:00:00,
2013-05-08 07:03:00,59.1,58.0,30.02,NNW,333,1.0,2.0,96,0.07,,-RA,0.21,VWS V14.00,2013-05-08 11:03:00,
2013-05-08 07:08:00,59.1,58.0,30.02,North,356,1.0,3.0,96,0.07,,-RA,0.21,VWS V14.00,2013-05-08 11:08:00,
2013-05-08 07:13:00,59.2,58.1,30.02,NE,49,1.0,5.0,96,0.07,,-RA,0.21,VWS V14.00,2013-05-08 11:13:00,
2013-05-08 07:18:00,59.2,58.1,30.03,NW,325,3.0,5.0,96,0.07,,-RA,0.21,VWS V14.00,2013-05-08 11:18:00,
2013-05-08 07:23:00,59.3,58.2,30.03,NNE,20,1.0,5.0,96,0.07,,-RA,0.21,VWS V14.00,2013-05-08 11:23:00,
2013-05-08 07:28:00,59.3,58.2,30.03,NE,44,1.0,5.0,96,0.07,,-RA,0.21,VWS V14.00,2013-05-08 11:28:00,
2013-05-08 07:30:00,59.3,58.2,30.03,East,89,3.0,5.0,96,0.07,,CLR,0.21,VWS V14.00,2013-05-08 11:30:00,
2013-05-08 07:33:00,59.2,58.1,30.03,East,92,0.0,3.0,96,0.07,,-RA,0.21,VWS V14.00,2013-05-08 11:33:00,
2013-05-08 07:38:00,59.2,58.1,30.03,NE,44,1.0,4.0,96,0.08,,-RA,0.22,VWS V14.00,2013-05-08 11:38:00,
2013-05-08 07:43:00,59.3,58.2,30.03,NE,47,0.0,4.0,96,0.08,,-RA,0.22,VWS V14.00,2013-05-08 11:43:00,
2013-05-08 07:48:00,59.3,58.2,30.03,NNW,345,2.0,4.0,96,0.08,,-RA,0.22,VWS V14.00,2013-05-08 11:48:00,
2013-05-08 07:53:00,59.4,58.3,30.03,NE,44,1.0,4.0,96,0.08,,-RA,0.22,VWS V14.00,2013-05-08 11:53:00,
2013-05-08 07:58:00,59.4,58.3,30.03,ENE,60,1.0,5.0,96,0.08,,-RA,0.22,VWS V14.00,2013-05-08 11:58:00,
2013-05-08 08:00:00,59.4,58.3,30.03,NE,42,3.0,5.0,96,0.09,,CLR,0.23,VWS V14.00,2013-05-08 12:00:00,
2013-05-08 08:03:00,59.4,58.3,30.03,NE,44,2.0,3.0,96,0.03,,-RA,0.23,VWS V14.00,2013-05-08 12:03:00,
2013-05-08 08:09:00,59.4,58.3,30.03,North,4,0.0,3.0,96,0.04,,-RA,0.24,VWS V14.00,2013-05-08 12:09:00,
2013-05-08 08:14:00,59.5,58.4,30.03,NE,39,3.0,3.0,96,0.04,,-RA,0.24,VWS V14.00,2013-05-08 12:14:00,
2013-05-08 08:19:00,59.5,58.4,30.02,ENE,61,3.0,3.0,96,0.05,,-RA,0.25,VWS V14.00,2013-05-08 12:19:00,
2013-05-08 08:24:00,59.5,58.4,30.01,South,177,2.0,9.0,96,0.06,,-RA,0.26,VWS V14.00,2013-05-08 12:24:00,
2013-05-08 08:29:00,59.6,58.2,30.02,ENE,77,0.0,9.0,95,0.06,,-RA,0.26,VWS V14.00,2013-05-08 12:29:00,
2013-05-08 08:30:00,59.6,58.5,30.02,ENE,77,0.0,9.0,96,0.06,,CLR,0.26,VWS V14.00,2013-05-08 12:30:00,
2013-05-08 08:34:00,59.6,58.2,30.02,ENE,73,3.0,5.0,95,0.05,,BKN070,0.26,VWS V14.00,2013-05-08 12:34:00,
2013-05-08 08:39:00,59.7,58.3,30.01,East,89,2.0,5.0,95,0.05,,BKN070,0.26,VWS V14.00,2013-05-08 12:39:00,
2013-05-08 08:44:00,59.8,58.4,30.02,ENE,65,2.0,5.0,95,0.05,,OVC095,0.26,VWS V14.00,2013-05-08 12:44:00,
2013-05-08 08:49:00,59.9,58.5,30.02,NE,46,0.0,5.0,95,0.05,,OVC095,0.26,VWS V14.00,2013-05-08 12:49:00,
2013-05-08 08:54:00,59.9,58.5,30.02,NE,37,3.0,5.0,95,0.05,,OVC095,0.26,VWS V14.00,2013-05-08 12:54:00,
2013-05-08 08:59:00,59.9,58.5,30.02,NNW,345,1.0,5.0,95,0.05,,OVC095,0.26,VWS V14.00,2013-05-08 12:59:00,
2013-05-08 09:00:00,59.8,58.4,30.02,NNE,19,2.0,5.0,95,0.05,,CLR,0.26,VWS V14.00,2013-05-08 13:00:00,
2013-05-08 09:04:00,59.8,58.4,30.02,NE,49,3.0,4.0,95,0.03,,OVC075,0.26,VWS V14.00,2013-05-08 13:04:00,
2013-05-08 09:09:00,59.7,58.3,30.02,NNE,17,2.0,4.0,95,0.03,,OVC075,0.26,VWS V14.00,2013-05-08 13:09:00,
2013-05-08 09:14:00,59.7,58.3,30.01,NE,45,2.0,9.0,95,0.04,,OVC075,0.27,VWS V14.00,2013-05-08 13:14:00,
2013-05-08 09:19:00,59.7,58.3,30.01,ESE,118,2.0,9.0,95,0.05,,OVC075,0.28,VWS V14.00,2013-05-08 13:19:00,
2013-05-08 09:24:00,59.6,58.2,30.01,ENE,60,2.0,9.0,95,0.07,,OVC075,0.30,VWS V14.00,2013-05-08 13:24:00,
2013-05-08 09:29:00,59.6,58.2,30.02,SSE,153,2.0,9.0,95,0.08,,OVC075,0.31,VWS V14.00,2013-05-08 13:29:00,
2013-05-08 09:30:00,59.6,58.2,30.03,SSE,154,1.0,9.0,95,0.09,,CLR,0.32,VWS V14.00,2013-05-08 13:30:00,
2013-05-08 09:34:00,59.5,58.1,30.04,ENE,70,0.0,5.0,95,0.10,,OVC075,0.36,VWS V14.00,2013-05-08 13:34:00,
2013-05-08 09:39:00,59.4,58.0,30.02,NE,54,0.0,5.0,95,0.13,,OVC075,0.39,VWS V14.00,2013-05-08 13:39:00,
2013-05-08 09:44:00,59.2,57.8,30.02,NNE,13,0.0,5.0,95,0.14,, +RA,0.40,VWS V14.00,2013-05-08 13:44:00,
2013-05-08 09:49:00,59.1,57.4,30.03,East,101,2.0,5.0,94,0.14,, +RA,0.40,VWS V14.00,2013-05-08 13:49:00,
2013-05-08 09:54:00,59.0,57.3,30.03,NNW,342,1.0,5.0,94,0.14,, +RA,0.40,VWS V14.00,2013-05-08 13:54:00,
2013-05-08 09:59:00,59.1,57.4,30.03,SSW,206,0.0,5.0,94,0.14,, +RA,0.40,VWS V14.00,2013-05-08 13:59:00,
2013-05-08 10:00:00,59.1,57.4,30.03,SSW,206,0.0,5.0,94,0.14,,CLR,0.40,VWS V14.00,2013-05-08 14:00:00,
2013-05-08 10:04:00,59.1,57.4,30.03,SSW,195,1.0,3.0,94,0.14,, +RA,0.40,VWS V14.00,2013-05-08 14:04:00,
2013-05-08 10:09:00,59.1,57.4,30.04,South,186,0.0,3.0,94,0.18,, +RA,0.44,VWS V14.00,2013-05-08 14:09:00,
2013-05-08 10:14:00,58.9,56.9,30.04,SE,141,2.0,6.0,93,0.31,, +RA,0.57,VWS V14.00,2013-05-08 14:14:00,
2013-05-08 10:20:00,58.3,56.3,30.05,SSW,198,2.0,6.0,93,0.40,, +RA,0.66,VWS V14.00,2013-05-08 14:20:00,
2013-05-08 10:25:00,57.9,55.9,30.04,SSE,164,0.0,6.0,93,0.56,, +RA,0.82,VWS V14.00,2013-05-08 14:25:00,
2013-05-08 10:30:00,57.7,56.0,30.04,SSW,204,0.0,0.0,94,0.65,, +RA,0.97,VWS V14.00,2013-05-08 14:30:00,
2013-05-08 10:35:00,57.5,55.8,30.04,ENE,66,2.0,2.0,94,0.81,,RA,1.13,VWS V14.00,2013-05-08 14:35:00,
2013-05-08 10:40:00,57.5,55.8,30.03,NNW,333,0.0,4.0,94,0.93,,RA,1.25,VWS V14.00,2013-05-08 14:40:00,
2013-05-08 10:45:00,57.3,55.6,30.03,ENE,60,0.0,4.0,94,0.97,,RA,1.29,VWS V14.00,2013-05-08 14:45:00,
2013-05-08 10:50:00,57.2,55.8,30.04,West,278,1.0,4.0,95,1.05,,RA,1.37,VWS V14.00,2013-05-08 14:50:00,
2013-05-08 10:55:00,57.2,55.8,30.04,West,278,1.0,4.0,95,1.15,,RA,1.47,VWS V14.00,2013-05-08 14:55:00,
2013-05-08 11:00:00,57.2,55.8,30.04,NNW,347,1.0,1.0,95,1.18,,RA,1.58,VWS V14.00,2013-05-08 15:00:00,
2013-05-08 11:05:00,57.2,55.8,30.04,North,351,0.0,1.0,95,1.31,,OVC041,1.71,VWS V14.00,2013-05-08 15:05:00,
2013-05-08 11:10:00,57.3,55.9,30.04,East,94,1.0,2.0,95,1.36,,OVC041,1.76,VWS V14.00,2013-05-08 15:10:00,
2013-05-08 11:15:00,57.4,56.0,30.03,North,350,0.0,2.0,95,1.39,,BKN043,1.79,VWS V14.00,2013-05-08 15:15:00,
2013-05-08 11:20:00,57.7,56.3,30.03,NNE,13,0.0,2.0,95,1.44,,BKN043,1.84,VWS V14.00,2013-05-08 15:20:00,
2013-05-08 11:25:00,58.0,56.9,30.02,NNE,13,2.0,2.0,96,1.46,,OVC065,1.86,VWS V14.00,2013-05-08 15:25:00,
2013-05-08 11:30:00,58.5,57.4,30.02,North,5,0.0,0.0,96,0.93,,OVC065,1.90,VWS V14.00,2013-05-08 15:30:00,
2013-05-08 11:35:00,58.9,57.8,30.02,NE,51,1.0,3.0,96,0.95,,OVC065,1.92,VWS V14.00,2013-05-08 15:35:00,
2013-05-08 11:40:00,59.3,58.2,30.02,North,5,0.0,3.0,96,1.01,,OVC065,1.98,VWS V14.00,2013-05-08 15:40:00,
2013-05-08 11:45:00,59.4,58.3,30.02,North,349,0.0,5.0,96,1.05,,OVC065,2.02,VWS V14.00,2013-05-08 15:45:00,
2013-05-08 11:50:00,59.9,58.8,30.02,North,1,3.0,5.0,96,1.05,,OVC065,2.02,VWS V14.00,2013-05-08 15:50:00,
2013-05-08 11:55:00,60.1,59.0,30.01,NE,56,0.0,5.0,96,1.05,,OVC065,2.02,VWS V14.00,2013-05-08 15:55:00,
2013-05-08 12:00:00,60.2,59.1,30.01,North,354,0.0,1.0,96,0.45,,OVC065,2.02,VWS V14.00,2013-05-08 16:00:00,
2013-05-08 12:05:00,60.8,59.7,30.01,NE,53,4.0,4.0,96,0.46,,OVC023,2.03,VWS V14.00,2013-05-08 16:05:00,
2013-05-08 12:10:00,60.7,59.3,30.01,East,85,1.0,4.0,95,0.46,,-RA,2.03,VWS V14.00,2013-05-08 16:10:00,
2013-05-08 12:15:00,60.8,59.4,30.00,ENE,58,1.0,4.0,95,0.46,,-RA,2.03,VWS V14.00,2013-05-08 16:15:00,
2013-05-08 12:21:00,60.9,59.5,30.00,NE,37,1.0,8.0,95,0.46,,-RA,2.03,VWS V14.00,2013-05-08 16:21:00,
2013-05-08 12:26:00,61.0,59.6,30.00,East,83,0.0,8.0,95,0.46,,-RA,2.03,VWS V14.00,2013-05-08 16:26:00,
2013-05-08 12:30:00,61.0,59.6,30.00,NNW,347,1.0,8.0,95,0.46,,CLR,2.03,VWS V14.00,2013-05-08 16:30:00,
2013-05-08 12:31:00,61.0,59.6,30.00,NE,44,0.0,3.0,95,0.13,,RA,2.03,VWS V14.00,2013-05-08 16:31:00,
2013-05-08 12:36:00,61.0,59.6,30.00,NE,51,3.0,3.0,95,0.13,,RA,2.03,VWS V14.00,2013-05-08 16:36:00,
2013-05-08 12:41:00,61.4,60.0,29.99,North,355,0.0,3.0,95,0.13,,RA,2.03,VWS V14.00,2013-05-08 16:41:00,
2013-05-08 12:46:00,61.9,60.8,30.00,NNE,23,2.0,3.0,96,0.13,,RA,2.03,VWS V14.00,2013-05-08 16:46:00,
2013-05-08 12:51:00,61.9,60.5,29.99,NE,53,0.0,3.0,95,0.13,,RA,2.03,VWS V14.00,2013-05-08 16:51:00,
2013-05-08 12:56:00,61.8,60.1,29.99,NNW,328,1.0,3.0,94,0.13,,RA,2.03,VWS V14.00,2013-05-08 16:56:00,
2013-05-08 13:00:00,62.0,60.6,29.99,NE,35,0.0,3.0,95,0.13,,CLR,2.03,VWS V14.00,2013-05-08 17:00:00,
2013-05-08 13:01:00,62.2,60.8,29.99,North,351,2.0,2.0,95,0.01,,-RA,2.03,VWS V14.00,2013-05-08 17:01:00,
2013-05-08 13:06:00,62.0,60.3,29.99,NNW,333,0.0,3.0,94,0.01,,-RA,2.03,VWS V14.00,2013-05-08 17:06:00,
2013-05-08 13:11:00,62.1,60.4,29.99,NNW,331,1.0,3.0,94,0.01,,-RA,2.03,VWS V14.00,2013-05-08 17:11:00,
2013-05-08 13:16:00,62.1,60.4,29.99,North,6,1.0,3.0,94,0.01,,-RA,2.03,VWS V14.00,2013-05-08 17:16:00,
2013-05-08 13:21:00,62.2,60.5,29.99,North,6,1.0,3.0,94,0.01,,,2.03,VWS V14.00,2013-05-08 17:21:00,
2013-05-08 13:26:00,62.2,60.8,29.99,East,96,1.0,3.0,95,0.01,,,2.03,VWS V14.00,2013-05-08 17:26:00,
2013-05-08 13:30:00,62.3,60.8,29.99,East,96,0.0,3.0,95,0.01,,CLR,2.03,VWS V14.00,2013-05-08 17:30:00,
2013-05-08 13:31:00,62.4,61.0,29.99,East,94,0.0,1.0,95,0.00,,,2.03,VWS V14.00,2013-05-08 17:31:00,
2013-05-08 13:36:00,62.4,60.7,29.99,ENE,58,2.0,3.0,94,0.01,,,2.04,VWS V14.00,2013-05-08 17:36:00,
2013-05-08 13:41:00,62.5,60.8,29.99,NE,53,0.0,3.0,94,0.01,,,2.04,VWS V14.00,2013-05-08 17:41:00,
2013-05-08 13:46:00,62.9,61.5,29.99,NE,53,0.0,3.0,95,0.01,,,2.04,VWS V14.00,2013-05-08 17:46:00,
2013-05-08 13:51:00,63.3,61.8,29.98,North,1,1.0,3.0,95,0.01,,,2.04,VWS V14.00,2013-05-08 17:51:00,
2013-05-08 13:56:00,63.7,62.0,29.98,ENE,58,0.0,3.0,94,0.01,,,2.04,VWS V14.00,2013-05-08 17:56:00,
2013-05-08 14:00:00,63.9,62.1,29.98,NNW,333,0.0,3.0,94,0.01,,CLR,2.04,VWS V14.00,2013-05-08 18:00:00,
2013-05-08 14:01:00,64.0,62.2,29.98,NNW,333,0.0,0.0,94,0.01,,OVC008,2.04,VWS V14.00,2013-05-08 18:01:00,
2013-05-08 14:06:00,64.5,62.4,29.98,ENE,63,2.0,3.0,93,0.01,,OVC008,2.04,VWS V14.00,2013-05-08 18:06:00,
2013-05-08 14:11:00,64.4,62.0,29.98,ENE,78,1.0,4.0,92,0.01,,OVC008,2.04,VWS V14.00,2013-05-08 18:11:00,
2013-05-08 14:17:00,64.7,61.7,29.98,ENE,74,0.0,4.0,90,0.01,,OVC008,2.04,VWS V14.00,2013-05-08 18:17:00,
2013-05-08 14:22:00,64.6,61.9,29.98,NE,43,0.0,4.0,91,0.01,,OVC008,2.04,VWS V14.00,2013-05-08 18:22:00,
2013-05-08 14:27:00,64.3,61.3,29.98,North,4,0.0,4.0,90,0.01,,OVC008,2.04,VWS V14.00,2013-05-08 18:27:00,
2013-05-08 14:30:00,64.1,61.4,29.98,North,5,1.0,4.0,91,0.01,,CLR,2.04,VWS V14.00,2013-05-08 18:30:00,
2013-05-08 14:32:00,63.9,61.2,29.98,North,4,0.0,1.0,91,0.01,,OVC008,2.04,VWS V14.00,2013-05-08 18:32:00,
2013-05-08 14:37:00,63.7,61.0,29.99,North,5,0.0,1.0,91,0.01,,OVC008,2.04,VWS V14.00,2013-05-08 18:37:00,
2013-05-08 14:42:00,63.5,61.1,29.98,North,5,0.0,1.0,92,0.01,,OVC008,2.04,VWS V14.00,2013-05-08 18:42:00,
2013-05-08 14:47:00,63.5,61.4,29.98,North,5,0.0,2.0,93,0.01,,OVC008,2.04,VWS V14.00,2013-05-08 18:47:00,
2013-05-08 14:52:00,63.9,61.8,29.98,North,4,0.0,2.0,93,0.01,,BKN042,2.04,VWS V14.00,2013-05-08 18:52:00,
2013-05-08 14:57:00,64.4,62.6,29.97,NNE,15,1.0,3.0,94,0.01,,BKN042,2.04,VWS V14.00,2013-05-08 18:57:00,
2013-05-08 15:00:00,64.5,62.4,29.97,NNE,15,2.0,4.0,93,0.01,,CLR,2.04,VWS V14.00,2013-05-08 19:00:00,
2013-05-08 15:02:00,64.4,62.0,29.97,NE,40,1.0,7.0,92,0.00,,BKN030,2.04,VWS V14.00,2013-05-08 19:02:00,
2013-05-08 15:07:00,64.4,62.0,29.97,ENE,67,1.0,7.0,92,0.00,,BKN030,2.04,VWS V14.00,2013-05-08 19:07:00,
2013-05-08 15:12:00,64.8,62.7,29.97,East,86,0.0,7.0,93,0.00,,BKN030,2.04,VWS V14.00,2013-05-08 19:12:00,
2013-05-08 15:17:00,65.8,62.8,29.97,North,6,2.0,7.0,90,0.00,,BKN030,2.04,VWS V14.00,2013-05-08 19:17:00,
2013-05-08 15:22:00,66.0,63.0,29.96,NE,50,2.0,7.0,90,0.00,,BKN030,2.04,VWS V14.00,2013-05-08 19:22:00,
2013-05-08 15:27:00,66.2,62.9,29.96,North,8,3.0,7.0,89,0.00,,BKN030,2.04,VWS V14.00,2013-05-08 19:27:00,
2013-05-08 15:30:00,66.2,62.9,29.96,ESE,104,1.0,7.0,89,0.00,,CLR,2.04,VWS V14.00,2013-05-08 19:30:00,
2013-05-08 15:32:00,66.2,62.5,29.96,East,101,1.0,2.0,88,0.00,,BKN030,2.04,VWS V14.00,2013-05-08 19:32:00,
2013-05-08 15:37:00,66.1,62.1,29.96,NNW,329,1.0,3.0,87,0.00,,BKN030,2.04,VWS V14.00,2013-05-08 19:37:00,
2013-05-08 15:42:00,66.1,62.5,29.95,NE,53,1.0,3.0,88,0.00,,SCT041,2.04,VWS V14.00,2013-05-08 19:42:00,
2013-05-08 15:47:00,66.2,61.9,29.95,ENE,65,1.0,3.0,86,0.00,,SCT041,2.04,VWS V14.00,2013-05-08 19:47:00,
2013-05-08 15:52:00,66.8,62.8,29.95,NNE,13,0.0,3.0,87,0.00,,SCT041,2.04,VWS V14.00,2013-05-08 19:52:00,
2013-05-08 15:57:00,67.2,62.5,29.95,ENE,65,3.0,4.0,85,0.00,,SCT041,2.04,VWS V14.00,2013-05-08 19:57:00,
2013-05-08 16:00:00,66.7,62.0,29.96,SE,139,0.0,4.0,85,0.00,,CLR,2.04,VWS V14.00,2013-05-08 20:00:00,
2013-05-08 16:02:00,66.7,62.4,29.97,ESE,105,2.0,4.0,86,0.00,,FEW049,2.04,VWS V14.00,2013-05-08 20:02:00,
2013-05-08 16:07:00,67.9,63.6,29.96,NE,55,3.0,4.0,86,0.00,,FEW049,2.04,VWS V14.00,2013-05-08 20:07:00,
2013-05-08 16:13:00,67.9,62.9,29.96,SE,135,0.0,4.0,84,0.00,,FEW049,2.04,VWS V14.00,2013-05-08 20:13:00,
2013-05-08 16:18:00,68.5,63.5,29.96,East,79,0.0,4.0,84,0.00,,FEW049,2.04,VWS V14.00,2013-05-08 20:18:00,
2013-05-08 16:23:00,69.5,63.8,29.95,NE,37,2.0,4.0,82,0.00,,FEW049,2.04,VWS V14.00,2013-05-08 20:23:00,
2013-05-08 16:28:00,69.9,63.5,29.95,SE,133,3.0,4.0,80,0.00,,FEW049,2.04,VWS V14.00,2013-05-08 20:28:00,
2013-05-08 16:30:00,69.4,63.0,29.95,ESE,107,1.0,4.0,80,0.00,,CLR,2.04,VWS V14.00,2013-05-08 20:30:00,
2013-05-08 16:33:00,69.0,63.3,29.95,East,101,3.0,3.0,82,0.00,,FEW049,2.04,VWS V14.00,2013-05-08 20:33:00,
2013-05-08 16:38:00,68.3,62.2,29.95,ENE,76,0.0,4.0,81,0.00,,FEW049,2.04,VWS V14.00,2013-05-08 20:38:00,
2013-05-08 16:43:00,69.2,63.5,29.95,ENE,61,1.0,4.0,82,0.00,,FEW049,2.04,VWS V14.00,2013-05-08 20:43:00,
2013-05-08 16:48:00,69.9,63.1,29.94,NNE,20,3.0,4.0,79,0.00,,FEW049,2.04,VWS V14.00,2013-05-08 20:48:00,
2013-05-08 16:53:00,69.4,62.6,29.94,NE,34,1.0,8.0,79,0.00,,FEW049,2.04,VWS V14.00,2013-05-08 20:53:00,
2013-05-08 16:58:00,69.7,63.6,29.95,ENE,65,3.0,8.0,81,0.00,,FEW049,2.04,VWS V14.00,2013-05-08 20:58:00,
2013-05-08 17:00:00,69.8,63.0,29.95,SE,145,2.0,8.0,79,0.00,,CLR,2.04,VWS V14.00,2013-05-08 21:00:00,
2013-05-08 17:03:00,69.2,62.4,29.95,ENE,68,3.0,4.0,79,0.00,,SCT070,2.04,VWS V14.00,2013-05-08 21:03:00,
2013-05-08 17:08:00,68.1,62.1,29.95,ENE,63,2.0,4.0,81,0.00,,SCT070,2.04,VWS V14.00,2013-05-08 21:08:00,
2013-05-08 17:13:00,67.5,62.2,29.95,North,9,1.0,4.0,83,0.00,,SCT070,2.04,VWS V14.00,2013-05-08 21:13:00,
2013-05-08 17:18:00,67.0,62.0,29.95,NE,40,0.0,4.0,84,0.00,,SCT070,2.04,VWS V14.00,2013-05-08 21:18:00,
2013-05-08 17:23:00,66.6,62.0,29.95,NE,40,0.0,4.0,85,0.00,,SCT070,2.04,VWS V14.00,2013-05-08 21:23:00,
2013-05-08 17:28:00,66.3,61.7,29.95,East,101,0.0,4.0,85,0.00,,SCT070,2.04,VWS V14.00,2013-05-08 21:28:00,
2013-05-08 17:30:00,66.2,61.6,29.95,East,101,0.0,4.0,85,0.00,,CLR,2.04,VWS V14.00,2013-05-08 21:30:00,
2013-05-08 17:33:00,66.1,61.5,29.95,NE,47,3.0,3.0,85,0.00,,SCT070,2.04,VWS V14.00,2013-05-08 21:33:00,
2013-05-08 17:38:00,65.9,61.3,29.95,ENE,65,2.0,4.0,85,0.00,,SCT070,2.04,VWS V14.00,2013-05-08 21:38:00,
2013-05-08 17:43:00,65.9,61.6,29.94,NE,35,0.0,4.0,86,0.00,,SCT070,2.04,VWS V14.00,2013-05-08 21:43:00,
2013-05-08 17:48:00,65.7,61.4,29.94,ENE,63,1.0,4.0,86,0.00,,SCT070,2.04,VWS V14.00,2013-05-08 21:48:00,
2013-05-08 17:53:00,65.5,61.2,29.94,ENE,65,3.0,5.0,86,0.00,,SCT070,2.04,VWS V14.00,2013-05-08 21:53:00,
2013-05-08 17:58:00,65.7,61.7,29.94,West,274,1.0,5.0,87,0.00,,SCT070,2.04,VWS V14.00,2013-05-08 21:58:00,
2013-05-08 18:00:00,65.9,61.9,29.94,NNW,336,1.0,5.0,87,0.00,,CLR,2.04,VWS V14.00,2013-05-08 22:00:00,
2013-05-08 18:03:00,66.4,62.1,29.94,NE,47,3.0,4.0,86,0.00,,SCT110,2.04,VWS V14.00,2013-05-08 22:03:00,
2013-05-08 18:08:00,66.9,62.2,29.94,NE,34,0.0,4.0,85,0.00,,SCT110,2.04,VWS V14.00,2013-05-08 22:08:00,
2013-05-08 18:13:00,67.4,62.4,29.94,NE,34,2.0,4.0,84,0.00,,SCT110,2.04,VWS V14.00,2013-05-08 22:13:00,
2013-05-08 18:19:00,67.6,62.3,29.94,ESE,121,1.0,5.0,83,0.00,,SCT110,2.04,VWS V14.00,2013-05-08 22:19:00,
2013-05-08 18:24:00,67.8,61.8,29.94,ENE,68,5.0,6.0,81,0.00,,SCT110,2.04,VWS V14.00,2013-05-08 22:24:00,
2013-05-08 18:29:00,68.0,62.3,29.94,NNW,342,3.0,6.0,82,0.00,,SCT110,2.04,VWS V14.00,2013-05-08 22:29:00,
2013-05-08 18:30:00,68.0,62.3,29.94,SE,146,3.0,6.0,82,0.00,,CLR,2.04,VWS V14.00,2013-05-08 22:30:00,
2013-05-08 18:34:00,67.4,62.1,29.94,ESE,105,2.0,5.0,83,0.00,,SCT110,2.04,VWS V14.00,2013-05-08 22:34:00,
2013-05-08 18:39:00,66.4,61.8,29.94,NE,51,1.0,5.0,85,0.01,,SCT110,2.05,VWS V14.00,2013-05-08 22:39:00,
2013-05-08 18:44:00,65.5,61.5,29.94,ENE,61,1.0,5.0,87,0.01,,SCT110,2.05,VWS V14.00,2013-05-08 22:44:00,
2013-05-08 18:49:00,64.9,61.3,29.94,ENE,68,3.0,5.0,88,0.01,,SCT110,2.05,VWS V14.00,2013-05-08 22:49:00,
2013-05-08 18:54:00,64.5,61.2,29.94,ESE,111,1.0,5.0,89,0.01,,SCT110,2.05,VWS V14.00,2013-05-08 22:54:00,
2013-05-08 18:59:00,64.1,60.8,29.94,NNE,23,2.0,5.0,89,0.03,,SCT110,2.07,VWS V14.00,2013-05-08 22:59:00,
2013-05-08 19:00:00,64.1,60.8,29.94,East,89,1.0,5.0,89,0.03,,CLR,2.07,VWS V14.00,2013-05-08 23:00:00,
2013-05-08 19:04:00,63.5,60.5,29.94,North,350,1.0,3.0,90,0.05,,SCT032,2.09,VWS V14.00,2013-05-08 23:04:00,
2013-05-08 19:09:00,63.0,60.3,29.95,ENE,74,0.0,3.0,91,0.06,,SCT032,2.10,VWS V14.00,2013-05-08 23:09:00,
2013-05-08 19:14:00,62.7,60.0,29.95,East,87,1.0,4.0,91,0.06,,SCT032,2.10,VWS V14.00,2013-05-08 23:14:00,
2013-05-08 19:19:00,62.4,60.0,29.95,East,96,1.0,4.0,92,0.06,,SCT032,2.10,VWS V14.00,2013-05-08 23:19:00,
2013-05-08 19:24:00,62.0,59.7,29.95,North,349,0.0,4.0,92,0.06,,SCT032,2.10,VWS V14.00,2013-05-08 23:24:00,
2013-05-08 19:29:00,61.7,59.4,29.95,NE,55,1.0,4.0,92,0.06,,SCT032,2.10,VWS V14.00,2013-05-08 23:29:00,
2013-05-08 19:30:00,61.7,59.4,29.95,NNE,30,1.0,4.0,92,0.06,,CLR,2.10,VWS V14.00,2013-05-08 23:30:00,
2013-05-08 19:34:00,61.4,59.1,29.95,NE,56,0.0,3.0,92,0.06,,SCT032,2.10,VWS V14.00,2013-05-08 23:34:00,
2013-05-08 19:39:00,61.1,58.8,29.95,NE,46,0.0,3.0,92,0.06,,SCT032,2.10,VWS V14.00,2013-05-08 23:39:00,
2013-05-08 19:44:00,60.7,58.4,29.96,North,9,0.0,3.0,92,0.06,,SCT032,2.10,VWS V14.00,2013-05-08 23:44:00,
2013-05-08 19:49:00,60.2,57.9,29.96,North,9,1.0,3.0,92,0.06,,SCT032,2.10,VWS V14.00,2013-05-08 23:49:00,
2013-05-08 19:54:00,59.7,57.4,29.96,NNE,18,0.0,3.0,92,0.06,,SCT032,2.10,VWS V14.00,2013-05-08 23:54:00,
2013-05-08 19:59:00,59.3,57.3,29.97,North,6,1.0,3.0,93,0.06,,SCT032,2.10,VWS V14.00,2013-05-08 23:59:00,
2013-05-08 20:00:00,59.3,57.3,29.97,North,6,1.0,3.0,93,0.06,,CLR,2.10,VWS V14.00,2013-05-09 00:00:00,
2013-05-08 20:04:00,59.0,57.0,29.97,North,356,0.0,2.0,93,0.03,,SCT049,2.10,VWS V14.00,2013-05-09 00:04:00,
2013-05-08 20:10:00,58.7,56.7,29.97,North,357,0.0,2.0,93,0.03,,SCT049,2.10,VWS V14.00,2013-05-09 00:10:00,
2013-05-08 20:15:00,58.6,56.9,29.97,North,357,0.0,2.0,94,0.03,,SCT049,2.10,VWS V14.00,2013-05-09 00:15:00,
2013-05-08 20:20:00,58.3,56.6,29.97,North,357,0.0,2.0,94,0.03,,SCT049,2.10,VWS V14.00,2013-05-09 00:20:00,
2013-05-08 20:25:00,58.1,56.4,29.97,North,357,0.0,2.0,94,0.03,,SCT049,2.10,VWS V14.00,2013-05-09 00:25:00,
2013-05-08 20:30:00,57.9,56.2,29.98,North,359,1.0,1.0,94,0.00,,SCT049,2.10,VWS V14.00,2013-05-09 00:30:00,
2013-05-08 20:35:00,57.7,56.0,29.98,NNE,13,0.0,2.0,94,0.00,,SCT049,2.10,VWS V14.00,2013-05-09 00:35:00,
2013-05-08 20:40:00,57.5,55.8,29.98,NNE,19,1.0,3.0,94,0.00,,SCT049,2.10,VWS V14.00,2013-05-09 00:40:00,
2013-05-08 20:45:00,57.3,55.6,29.98,North,6,0.0,3.0,94,0.00,,SCT049,2.10,VWS V14.00,2013-05-09 00:45:00,
2013-05-08 20:50:00,57.2,55.5,29.99,NNE,13,1.0,3.0,94,0.00,,SCT049,2.10,VWS V14.00,2013-05-09 00:50:00,
2013-05-08 20:55:00,57.0,55.3,29.99,East,92,1.0,3.0,94,0.00,,SCT049,2.10,VWS V14.00,2013-05-09 00:55:00,
2013-05-08 21:00:00,57.0,55.3,29.99,NE,44,0.0,1.0,94,0.00,,SCT049,2.10,VWS V14.00,2013-05-09 01:00:00,
2013-05-08 21:05:00,56.8,55.1,29.99,North,11,2.0,2.0,94,0.00,,CLR,2.10,VWS V14.00,2013-05-09 01:05:00,
2013-05-08 21:10:00,56.8,55.1,29.99,North,9,0.0,2.0,94,0.00,,CLR,2.10,VWS V14.00,2013-05-09 01:10:00,
2013-05-08 21:15:00,56.6,55.2,30.00,North,9,0.0,2.0,95,0.00,,CLR,2.10,VWS V14.00,2013-05-09 01:15:00,
2013-05-08 21:20:00,56.6,55.2,30.00,North,357,1.0,2.0,95,0.00,,CLR,2.10,VWS V14.00,2013-05-09 01:20:00,
2013-05-08 21:25:00,56.5,55.1,30.00,North,356,0.0,2.0,95,0.00,,CLR,2.10,VWS V14.00,2013-05-09 01:25:00,
2013-05-08 21:30:00,56.4,55.0,30.00,North,356,0.0,0.0,95,0.00,,CLR,2.10,VWS V14.00,2013-05-09 01:30:00,
2013-05-08 21:35:00,56.3,54.9,30.00,North,356,0.0,0.0,95,0.00,,CLR,2.10,VWS V14.00,2013-05-09 01:35:00,
2013-05-08 21:40:00,56.3,54.9,30.00,North,357,0.0,0.0,95,0.00,,CLR,2.10,VWS V14.00,2013-05-09 01:40:00,
2013-05-08 21:45:00,56.4,55.0,30.00,North,356,1.0,1.0,95,0.00,,CLR,2.10,VWS V14.00,2013-05-09 01:45:00,
2013-05-08 21:51:00,56.3,54.9,30.00,North,357,0.0,1.0,95,0.00,,CLR,2.10,VWS V14.00,2013-05-09 01:51:00,
2013-05-08 21:56:00,56.2,54.8,30.01,North,357,1.0,1.0,95,0.00,,CLR,2.10,VWS V14.00,2013-05-09 01:56:00,
2013-05-08 22:00:00,56.2,54.8,30.01,North,357,0.0,1.0,95,0.00,,CLR,2.10,VWS V14.00,2013-05-09 02:00:00,
2013-05-08 22:01:00,56.2,54.8,30.00,North,356,0.0,0.0,95,0.00,,CLR,2.10,VWS V14.00,2013-05-09 02:01:00,
2013-05-08 22:06:00,56.1,54.7,30.00,North,357,0.0,1.0,95,0.00,,CLR,2.10,VWS V14.00,2013-05-09 02:06:00,
2013-05-08 22:11:00,56.1,54.7,30.00,North,356,0.0,1.0,95,0.00,,CLR,2.10,VWS V14.00,2013-05-09 02:11:00,
2013-05-08 22:16:00,56.0,54.6,30.00,North,357,0.0,1.0,95,0.00,,CLR,2.10,VWS V14.00,2013-05-09 02:16:00,
2013-05-08 22:21:00,55.9,54.5,30.00,North,357,0.0,1.0,95,0.00,,CLR,2.10,VWS V14.00,2013-05-09 02:21:00,
2013-05-08 22:26:00,55.8,54.4,30.00,North,357,0.0,1.0,95,0.00,,CLR,2.10,VWS V14.00,2013-05-09 02:26:00,
2013-05-08 22:30:00,55.7,54.3,30.00,North,357,0.0,1.0,95,0.00,,CLR,2.10,VWS V14.00,2013-05-09 02:30:00,
2013-05-08 22:31:00,55.7,54.3,30.00,North,356,0.0,1.0,95,0.00,,CLR,2.10,VWS V14.00,2013-05-09 02:31:00,
2013-05-08 22:36:00,55.5,54.1,30.00,North,356,0.0,1.0,95,0.00,,CLR,2.10,VWS V14.00,2013-05-09 02:36:00,
2013-05-08 22:41:00,55.4,54.0,30.00,North,356,1.0,1.0,95,0.00,,CLR,2.10,VWS V14.00,2013-05-09 02:41:00,
2013-05-08 22:46:00,55.4,54.0,29.99,North,356,0.0,1.0,95,0.00,,CLR,2.10,VWS V14.00,2013-05-09 02:46:00,
2013-05-08 22:51:00,55.2,53.8,29.99,North,357,0.0,1.0,95,0.00,,CLR,2.10,VWS V14.00,2013-05-09 02:51:00,
2013-05-08 22:56:00,55.1,53.7,30.00,North,357,0.0,1.0,95,0.00,,CLR,2.10,VWS V14.00,2013-05-09 02:56:00,
2013-05-08 23:00:00,55.0,53.6,30.00,North,357,0.0,1.0,95,0.00,,CLR,2.10,VWS V14.00,2013-05-09 03:00:00,
2013-05-08 23:01:00,54.9,53.5,29.99,North,357,0.0,0.0,95,0.00,,OVC120,2.10,VWS V14.00,2013-05-09 03:01:00,
2013-05-08 23:06:00,54.9,53.5,30.00,North,357,0.0,0.0,95,0.00,,OVC120,2.10,VWS V14.00,2013-05-09 03:06:00,
2013-05-08 23:11:00,54.6,53.2,30.00,North,356,0.0,0.0,95,0.00,,OVC120,2.10,VWS V14.00,2013-05-09 03:11:00,
2013-05-08 23:16:00,54.5,53.1,29.99,North,357,0.0,0.0,95,0.00,,OVC120,2.10,VWS V14.00,2013-05-09 03:16:00,
2013-05-08 23:21:00,54.5,53.1,29.99,North,356,0.0,1.0,95,0.00,,OVC120,2.10,VWS V14.00,2013-05-09 03:21:00,
2013-05-08 23:26:00,54.5,53.4,29.99,North,357,1.0,1.0,96,0.00,,OVC120,2.10,VWS V14.00,2013-05-09 03:26:00,
2013-05-08 23:30:00,54.3,52.9,29.99,North,357,0.0,1.0,95,0.00,,CLR,2.10,VWS V14.00,2013-05-09 03:30:00,
2013-05-08 23:31:00,54.3,52.9,29.99,North,356,0.0,0.0,95,0.00,,OVC120,2.10,VWS V14.00,2013-05-09 03:31:00,
2013-05-08 23:36:00,54.1,52.7,29.99,North,357,0.0,1.0,95,0.00,,OVC120,2.10,VWS V14.00,2013-05-09 03:36:00,
2013-05-08 23:41:00,53.8,52.4,29.99,North,357,0.0,1.0,95,0.00,,OVC120,2.10,VWS V14.00,2013-05-09 03:41:00,
2013-05-08 23:46:00,53.6,52.2,29.99,North,357,0.0,1.0,95,0.00,,OVC120,2.10,VWS V14.00,2013-05-09 03:46:00,
2013-05-08 23:52:00,53.4,52.0,29.99,North,357,0.0,1.0,95,0.00,,OVC120,2.10,VWS V14.00,2013-05-09 03:52:00,
2013-05-08 23:57:00,53.4,52.3,29.99,North,356,0.0,1.0,96,0.00,,OVC120,2.10,VWS V14.00,2013-05-09 03:57:00,